Regional Weather Roundup
Issued by NWS Jackson, KY

Home | Current Version | Previous Version | Graphics & Text | Print | Product List | Glossary On
Versions: 1 2 3 4 5 6 7 8 9 10 11 12 13 14 15 16 17 18 19 20 21 22 23 24 25 26 27
000
ASUS43 KJKL 250910
RWRJKL

EAST KENTUCKY HOURLY WEATHER ROUNDUP
NATIONAL WEATHER SERVICE JACKSON KY
500 AM EDT THU MAY 25 2017

NOTE: "FAIR" INDICATES FEW OR NO CLOUDS BELOW 12,000 FEET WITH
NO SIGNIFICANT WEATHER AND/OR OBSTRUCTIONS TO VISIBILITY.

* THESE REPORTS ARE NOT UNDER NWS QUALITY CONTROL AND MAY NOT
  REPORT WEATHER SUCH AS PRECIPITATION AND FOG.

KYZ079-080-083-085-087-088-110-112-115-119-120-251000
...EASTERN KENTUCKY...

CITY           SKY/WX    TMP DP  RH WIND       PRES   REMARKS
JACKSON        CLOUDY    55  50  83 CALM      29.50S
LONDON         CLOUDY    53  48  83 S10       29.53S
SOMERSET*      CLOUDY    54  50  87 SW7       29.54S
MONTICELLO*    CLOUDY    55  51  86 W16G23    29.56S
MIDDLESBORO*   CLOUDY    52  49  89 CALM      29.56S
HARLAN APT*    CLOUDY    54  46  76 SW6       29.55S
PIKE CO APT*   CLOUDY    55  51  84 SW3       29.51R
BIG SANDY APT* CLOUDY    57  51  81 SW10      29.50R
MOREHEAD APT*  CLOUDY    55  52  88 SW13      29.48R
ASHLAND*       CLOUDY    59  54  82 SW7       29.43R
$$

KYZ035-036-041-042-044-050-067-078-099-251000
...CENTRAL KENTUCKY...

CITY           SKY/WX    TMP DP  RH WIND       PRES   REMARKS
DANVILLE*      DRIZZLE   54  54 100 W8        29.50S
LEXINGTON      CLOUDY    56  53  90 SW12      29.46S
FRANKFORT      CLOUDY    58  53  84 SW12      29.44S
LOUISVILLE     LGT RAIN  58  56  93 W13       29.46S
LEBANON*       PTSUNNY   55  55 100 SW10      29.50R FOG
GLASGOW*       CLOUDY    54  54 100 SW8       29.55R
BOWLING GREEN  CLOUDY    57  55  93 SW9       29.55F
$$

KYZ091>093-OHZ055-061-077-WVZ005-015-034-035-042-251000
...SOUTHERN OHIO/WEST VIRGINIA...

CITY           SKY/WX    TMP DP  RH WIND       PRES   REMARKS
COVINGTON      LGT RAIN  58  57  97 SW9       29.39S FOG
COLUMBUS       CLOUDY    60  59  96 SE10      29.38F
DAYTON         CLOUDY    58  57  97 SW9       29.37S
WILMINGTON     CLOUDY    58  58 100 SW8       29.38R
HUNTINGTON     CLOUDY    58  53  84 S8        29.45S
CHARLESTON     MOCLDY    58  53  84 S7        29.47R
PINEVILLE*     CLOUDY    56  55  97 MISG      29.55R
BECKLEY        CLOUDY    55  52  89 SW7       29.50S
BLUEFIELD      CLOUDY    52  49  89 W10       29.52S
$$

VAZ002-007-008-TNZ017-027-036-066-071-251000
...SOUTHWEST VIRGINIA/EAST TENNESSEE...

CITY           SKY/WX    TMP DP  RH WIND       PRES   REMARKS
WISE*          CLOUDY    50  50 100 SW8       29.55R
JONESVILLE*      N/A     50  48  93 SW6       29.58R
ABINGDON*      CLOUDY    54  51  92 W7        29.56R
BRISTOL        MOCLDY    54  51  90 SW10      29.56R
MORRISTOWN*    SUNNY     52  50  93 W9        29.56S
KNOXVILLE      CLEAR     52  49  89 SW6       29.58R
LAFOLLETTE*    CLOUDY    50  48  93 CALM      29.60R
OAK RIDGE      CLEAR     50  47  89 CALM      29.60R
CROSSVILLE     CLOUDY    50  49  96 SW6       29.60R
NASHVILLE      MOCLDY    54  51  90 W5        29.61R
$$

...KEY TO REMARKS...
VSB - VISIBILITY IN MILES
WCI - WIND CHILL INDEX
HX  - HEAT INDEX

$$




USA.gov is the U.S. government's official web portal to all federal, state and local government web resources and services.